Private Wetterstation Wechselburg
Wetterdaten: Freitag, 14.04.2023
Datum Zeit Temp. +2m Bodentemp. Temp.+5cm Temp. Wind Windchill X Diff Temp. Feuchte +2m Feuchte +5cm Luftdruck Regen Wind Richtung Richtung Sonnenschein Taupunkt Windchill Windben
14.04.2023 00:00 5,7 C 11,7 C 5,1 C 5,5 C 5,1 C 0,0 C 81 % 67 % 1009,9 hPa 0,0 l/m 0,0 km/h (0 Bft) W-SW 247 0 min 2,7 C 5,1 C 0,0 km/h (0 Bft)
14.04.2023 00:05 5,6 C 11,7 C 5,2 C 5,4 C 5,0 C 0,0 C 81 % 68 % 1009,4 hPa 0,0 l/m 0,0 km/h (0 Bft) W-SW 247 0 min 2,6 C 5,0 C 0,0 km/h (0 Bft)
14.04.2023 00:10 5,7 C 11,6 C 5,1 C 5,5 C 5,0 C 0,0 C 81 % 67 % 1009,4 hPa 0,0 l/m 0,0 km/h (0 Bft) W-SW 247 0 min 2,7 C 5,0 C 0,0 km/h (0 Bft)
14.04.2023 00:15 5,6 C 11,6 C 5,1 C 5,4 C 5,0 C 0,0 C 81 % 67 % 1009,4 hPa 0,0 l/m 0,0 km/h (0 Bft) W-SW 247 0 min 2,6 C 5,0 C 0,0 km/h (0 Bft)
14.04.2023 00:20 5,6 C 11,6 C 5,1 C 5,4 C 5,0 C 0,0 C 82 % 67 % 1009,4 hPa 0,0 l/m 0,0 km/h (0 Bft) W-SW 247 0 min 2,8 C 5,0 C 0,0 km/h (0 Bft)
14.04.2023 00:25 5,5 C 11,6 C 5,1 C 5,3 C 5,0 C 0,0 C 82 % 67 % 1009,1 hPa 0,0 l/m 0,0 km/h (0 Bft) W-SW 247 0 min 2,7 C 5,0 C 0,0 km/h (0 Bft)
14.04.2023 00:30 5,5 C 11,6 C 5,0 C 5,3 C 5,0 C 0,0 C 82 % 67 % 1009,1 hPa 0,0 l/m 0,0 km/h (0 Bft) O-NO 67 0 min 2,7 C 5,0 C 0,0 km/h (0 Bft)
14.04.2023 00:35 5,5 C 11,6 C 5,0 C 5,3 C 5,0 C 0,0 C 82 % 67 % 1009,1 hPa 0,0 l/m 0,0 km/h (0 Bft) O-NO 67 0 min 2,7 C 5,0 C 0,0 km/h (0 Bft)
14.04.2023 00:40 5,5 C 11,6 C 4,9 C 5,3 C 4,8 C 0,0 C 82 % 67 % 1009,1 hPa 0,0 l/m 0,0 km/h (0 Bft) O-NO 67 0 min 2,7 C 4,8 C 0,0 km/h (0 Bft)
14.04.2023 00:45 5,5 C 11,6 C 4,9 C 5,2 C 4,7 C 0,0 C 82 % 67 % 1009,1 hPa 0,0 l/m 0,0 km/h (0 Bft) O-NO 67 0 min 2,7 C 4,7 C 0,0 km/h (0 Bft)
14.04.2023 00:50 5,3 C 11,6 C 4,7 C 5,1 C 4,6 C 0,0 C 82 % 68 % 1009,1 hPa 0,0 l/m 0,0 km/h (0 Bft) S 180 0 min 2,5 C 4,6 C 0,0 km/h (0 Bft)
14.04.2023 00:55 5,3 C 11,6 C 4,7 C 5,1 C 4,6 C 0,0 C 82 % 69 % 1009,1 hPa 0,0 l/m 0,0 km/h (0 Bft) S 180 0 min 2,5 C 4,6 C 0,0 km/h (0 Bft)
14.04.2023 01:00 5,3 C 11,6 C 4,7 C 5,1 C 4,7 C 0,0 C 83 % 70 % 1009,1 hPa 0,0 l/m 0,0 km/h (0 Bft) SW 225 0 min 2,7 C 4,7 C 0,0 km/h (0 Bft)
14.04.2023 01:05 5,2 C 11,6 C 4,6 C 5,0 C 4,7 C 0,0 C 83 % 69 % 1009,6 hPa 0,0 l/m 0,0 km/h (0 Bft) S 180 0 min 2,6 C 4,7 C 0,0 km/h (0 Bft)
14.04.2023 01:10 5,2 C 11,6 C 4,6 C 5,0 C 4,7 C 0,0 C 83 % 69 % 1009,6 hPa 0,0 l/m 0,0 km/h (0 Bft) S-SO 157 0 min 2,6 C 4,7 C 0,0 km/h (0 Bft)
14.04.2023 01:15 5,3 C 11,6 C 4,6 C 5,1 C 4,7 C 0,0 C 83 % 69 % 1009,6 hPa 0,0 l/m 0,0 km/h (0 Bft) W-SW 247 0 min 2,7 C 4,7 C 0,0 km/h (0 Bft)
14.04.2023 01:20 5,2 C 11,6 C 4,7 C 5,0 C 4,7 C 0,0 C 83 % 69 % 1009,6 hPa 0,0 l/m 0,0 km/h (0 Bft) S-SO 157 0 min 2,6 C 4,7 C 0,0 km/h (0 Bft)
14.04.2023 01:25 5,2 C 11,6 C 4,9 C 5,1 C 4,8 C 0,0 C 83 % 69 % 1010,0 hPa 0,0 l/m 0,0 km/h (0 Bft) NO 45 0 min 2,6 C 4,8 C 0,0 km/h (0 Bft)
14.04.2023 01:30 5,2 C 11,6 C 5,0 C 5,1 C 5,0 C 0,0 C 84 % 69 % 1010,0 hPa 0,0 l/m 0,0 km/h (0 Bft) NO 45 0 min 2,7 C 5,0 C 0,0 km/h (0 Bft)
14.04.2023 01:35 5,2 C 11,6 C 5,0 C 5,1 C 5,0 C 0,0 C 84 % 69 % 1010,0 hPa 0,0 l/m 0,0 km/h (0 Bft) NO 45 0 min 2,7 C 5,0 C 0,0 km/h (0 Bft)
14.04.2023 01:40 5,3 C 11,6 C 4,9 C 5,2 C 5,0 C 0,0 C 84 % 69 % 1010,0 hPa 0,0 l/m 0,0 km/h (0 Bft) NO 45 0 min 2,8 C 5,0 C 0,0 km/h (0 Bft)
14.04.2023 01:45 5,3 C 11,6 C 4,9 C 5,2 C 5,0 C 0,0 C 84 % 69 % 1009,8 hPa 0,0 l/m 0,0 km/h (0 Bft) NO 45 0 min 2,8 C 5,0 C 0,0 km/h (0 Bft)
14.04.2023 01:50 5,3 C 11,5 C 4,9 C 5,2 C 5,0 C 0,0 C 84 % 69 % 1009,8 hPa 0,0 l/m 0,0 km/h (0 Bft) NO 45 0 min 2,8 C 5,0 C 0,0 km/h (0 Bft)
14.04.2023 01:55 5,2 C 11,5 C 4,9 C 5,1 C 5,0 C 0,0 C 84 % 69 % 1009,8 hPa 0,0 l/m 0,0 km/h (0 Bft) NO 45 0 min 2,7 C 5,0 C 0,0 km/h (0 Bft)
14.04.2023 02:00 5,2 C 11,5 C 4,9 C 5,1 C 4,8 C 0,0 C 84 % 69 % 1009,8 hPa 0,0 l/m 0,0 km/h (0 Bft) NO 45 0 min 2,7 C 4,8 C 0,0 km/h (0 Bft)
14.04.2023 02:05 5,2 C 11,6 C 4,9 C 5,1 C 5,0 C 0,0 C 84 % 69 % 1009,8 hPa 0,0 l/m 0,0 km/h (0 Bft) NO 45 0 min 2,7 C 5,0 C 0,0 km/h (0 Bft)
14.04.2023 02:10 5,2 C 11,6 C 4,8 C 5,1 C 4,8 C 0,0 C 84 % 69 % 1009,8 hPa 0,0 l/m 0,0 km/h (0 Bft) NO 45 0 min 2,7 C 4,8 C 0,0 km/h (0 Bft)
14.04.2023 02:15 5,2 C 11,7 C 4,7 C 5,1 C 4,8 C 0,0 C 84 % 70 % 1009,8 hPa 0,0 l/m 0,0 km/h (0 Bft) NO 45 0 min 2,7 C 4,8 C 0,0 km/h (0 Bft)
14.04.2023 02:20 5,1 C 11,7 C 4,7 C 5,0 C 4,7 C 0,0 C 84 % 71 % 1009,8 hPa 0,0 l/m 0,0 km/h (0 Bft) NO 45 0 min 2,6 C 4,7 C 0,0 km/h (0 Bft)
14.04.2023 02:25 5,1 C 11,6 C 4,6 C 4,9 C 4,6 C 0,0 C 84 % 71 % 1009,8 hPa 0,0 l/m 0,0 km/h (0 Bft) NO 45 0 min 2,6 C 4,6 C 0,0 km/h (0 Bft)
14.04.2023 02:30 5,0 C 11,6 C 4,5 C 4,8 C 4,4 C 0,0 C 84 % 71 % 1009,8 hPa 0,0 l/m 0,0 km/h (0 Bft) NO 45 0 min 2,5 C 4,4 C 0,0 km/h (0 Bft)
14.04.2023 02:35 5,1 C 11,6 C 4,5 C 4,8 C 4,3 C 0,0 C 84 % 71 % 1009,8 hPa 0,0 l/m 0,0 km/h (0 Bft) NO 45 0 min 2,6 C 4,3 C 0,0 km/h (0 Bft)
14.04.2023 02:40 5,0 C 11,6 C 4,5 C 4,7 C 4,2 C 0,0 C 84 % 71 % 1009,8 hPa 0,0 l/m 0,0 km/h (0 Bft) SO 135 0 min 2,5 C 4,2 C 0,0 km/h (0 Bft)
14.04.2023 02:45 4,9 C 11,6 C 4,5 C 4,7 C 4,2 C 0,0 C 84 % 71 % 1009,8 hPa 0,0 l/m 0,0 km/h (0 Bft) SO 135 0 min 2,4 C 4,2 C 0,0 km/h (0 Bft)
14.04.2023 02:50 4,9 C 11,6 C 4,4 C 4,7 C 4,2 C 0,0 C 84 % 71 % 1009,8 hPa 0,0 l/m 0,0 km/h (0 Bft) SO 135 0 min 2,4 C 4,2 C 0,0 km/h (0 Bft)
14.04.2023 02:55 4,9 C 11,6 C 4,5 C 4,7 C 4,2 C 0,0 C 85 % 71 % 1009,8 hPa 0,0 l/m 0,0 km/h (0 Bft) SO 135 0 min 2,6 C 4,2 C 0,0 km/h (0 Bft)
14.04.2023 03:00 4,9 C 11,6 C 4,5 C 4,7 C 4,2 C 0,0 C 85 % 71 % 1009,8 hPa 0,0 l/m 0,0 km/h (0 Bft) SO 135 0 min 2,6 C 4,2 C 0,0 km/h (0 Bft)
14.04.2023 03:05 4,9 C 11,6 C 4,4 C 4,7 C 4,3 C 0,0 C 85 % 71 % 1009,4 hPa 0,0 l/m 0,0 km/h (0 Bft) SO 135 0 min 2,6 C 4,3 C 0,0 km/h (0 Bft)
14.04.2023 03:11 4,9 C 11,6 C 4,4 C 4,7 C 4,4 C 0,0 C 85 % 71 % 1009,4 hPa 0,0 l/m 0,0 km/h (0 Bft) O-NO 67 0 min 2,6 C 4,4 C 0,0 km/h (0 Bft)
14.04.2023 03:15 4,9 C 11,6 C 4,4 C 4,7 C 4,4 C 0,0 C 85 % 71 % 1009,4 hPa 0,0 l/m 0,0 km/h (0 Bft) O-NO 67 0 min 2,6 C 4,4 C 0,0 km/h (0 Bft)
14.04.2023 03:22 4,9 C 11,5 C 4,5 C 4,7 C 4,4 C 0,0 C 85 % 71 % 1009,9 hPa 0,0 l/m 0,0 km/h (0 Bft) S 180 0 min 2,6 C 4,4 C 0,0 km/h (0 Bft)
14.04.2023 03:23 4,9 C 11,5 C 4,5 C 4,7 C 4,4 C 0,0 C 85 % 71 % 1009,9 hPa 0,0 l/m 0,0 km/h (0 Bft) S 180 0 min 2,6 C 4,4 C 0,0 km/h (0 Bft)
14.04.2023 03:24 4,9 C 11,5 C 4,5 C 4,7 C 4,4 C 0,0 C 85 % 71 % 1009,9 hPa 0,0 l/m 0,0 km/h (0 Bft) S 180 0 min 2,6 C 4,4 C 0,0 km/h (0 Bft)
14.04.2023 03:25 4,9 C 11,5 C 4,5 C 4,7 C 4,4 C 0,0 C 85 % 71 % 1009,9 hPa 0,0 l/m 0,0 km/h (0 Bft) S 180 0 min 2,6 C 4,4 C 0,0 km/h (0 Bft)
14.04.2023 03:26 4,9 C 11,5 C 4,5 C 4,7 C 4,4 C 0,0 C 85 % 71 % 1009,9 hPa 0,0 l/m 0,0 km/h (0 Bft) S 180 0 min 2,6 C 4,4 C 0,0 km/h (0 Bft)
14.04.2023 03:28 4,9 C 11,5 C 4,5 C 4,7 C 4,4 C 0,0 C 85 % 71 % 1009,9 hPa 0,0 l/m 0,0 km/h (0 Bft) S 180 0 min 2,6 C 4,4 C 0,0 km/h (0 Bft)
14.04.2023 03:30 4,9 C 11,5 C 4,5 C 4,7 C 4,4 C 0,0 C 85 % 71 % 1009,9 hPa 0,0 l/m 0,0 km/h (0 Bft) S 180 0 min 2,6 C 4,4 C 0,0 km/h (0 Bft)
14.04.2023 03:35 4,9 C 11,5 C 4,5 C 4,8 C 4,5 C 0,0 C 85 % 71 % 1009,9 hPa 0,0 l/m 0,0 km/h (0 Bft) S 180 0 min 2,6 C 4,5 C 0,0 km/h (0 Bft)
14.04.2023 03:40 4,9 C 11,5 C 4,5 C 4,8 C 4,6 C 0,0 C 85 % 71 % 1009,9 hPa 0,0 l/m 0,0 km/h (0 Bft) S 180 0 min 2,6 C 4,6 C 0,0 km/h (0 Bft)
14.04.2023 03:45 4,9 C 11,5 C 4,6 C 4,8 C 4,6 C 0,0 C 85 % 71 % 1009,8 hPa 0,0 l/m 0,0 km/h (0 Bft) S 180 0 min 2,6 C 4,6 C 0,0 km/h (0 Bft)
14.04.2023 03:50 4,9 C 11,4 C 4,6 C 4,8 C 4,6 C 0,0 C 85 % 72 % 1009,8 hPa 0,0 l/m 0,0 km/h (0 Bft) S 180 0 min 2,6 C 4,6 C 0,0 km/h (0 Bft)
14.04.2023 03:55 4,9 C 11,4 C 4,7 C 4,8 C 4,7 C 0,0 C 86 % 72 % 1009,8 hPa 0,0 l/m 0,0 km/h (0 Bft) S 180 0 min 2,8 C 4,7 C 0,0 km/h (0 Bft)
14.04.2023 04:00 5,1 C 11,5 C 4,9 C 5,0 C 4,8 C 0,0 C 86 % 72 % 1009,8 hPa 0,0 l/m 0,0 km/h (0 Bft) S 180 0 min 3,0 C 4,8 C 0,0 km/h (0 Bft)
14.04.2023 04:05 5,1 C 11,5 C 4,9 C 5,1 C 5,0 C 0,0 C 86 % 71 % 1010,1 hPa 0,0 l/m 0,0 km/h (0 Bft) S 180 0 min 3,0 C 5,0 C 0,0 km/h (0 Bft)
14.04.2023 04:11 5,1 C 11,5 C 4,9 C 5,1 C 5,0 C 0,0 C 86 % 71 % 1010,1 hPa 0,0 l/m 0,0 km/h (0 Bft) N 0 0 min 3,0 C 5,0 C 0,0 km/h (0 Bft)
14.04.2023 04:34 5,2 C 11,4 C 5,0 C 5,2 C 5,1 C 0,0 C 86 % 71 % 1009,6 hPa 0,0 l/m 0,0 km/h (0 Bft) O 90 0 min 3,1 C 5,1 C 0,0 km/h (0 Bft)
14.04.2023 04:40 5,2 C 11,4 C 5,0 C 5,2 C 5,2 C 0,0 C 86 % 72 % 1009,6 hPa 0,0 l/m 0,0 km/h (0 Bft) S 180 0 min 3,1 C 5,2 C 0,0 km/h (0 Bft)
14.04.2023 04:45 5,2 C 11,4 C 5,0 C 5,2 C 5,2 C 0,0 C 86 % 72 % 1009,9 hPa 0,0 l/m 0,0 km/h (0 Bft) S 180 0 min 3,1 C 5,2 C 0,0 km/h (0 Bft)
14.04.2023 04:50 5,2 C 11,4 C 5,0 C 5,2 C 5,1 C 0,0 C 86 % 72 % 1009,9 hPa 0,0 l/m 0,0 km/h (0 Bft) S 180 0 min 3,1 C 5,1 C 0,0 km/h (0 Bft)
14.04.2023 04:55 5,2 C 11,4 C 4,9 C 5,1 C 5,0 C 0,0 C 86 % 73 % 1009,9 hPa 0,0 l/m 0,0 km/h (0 Bft) S 180 0 min 3,1 C 5,0 C 0,0 km/h (0 Bft)
14.04.2023 05:00 5,2 C 11,4 C 5,0 C 5,1 C 5,0 C 0,0 C 86 % 73 % 1009,9 hPa 0,0 l/m 0,0 km/h (0 Bft) S-SO 157 0 min 3,1 C 5,0 C 0,0 km/h (0 Bft)
14.04.2023 05:05 5,1 C 11,4 C 5,0 C 5,1 C 5,0 C 0,0 C 86 % 73 % 1009,8 hPa 0,0 l/m 0,0 km/h (0 Bft) S-SO 157 0 min 3,0 C 5,0 C 0,0 km/h (0 Bft)
14.04.2023 05:10 5,2 C 11,4 C 5,0 C 5,1 C 5,0 C 0,0 C 86 % 73 % 1009,8 hPa 0,0 l/m 0,0 km/h (0 Bft) S-SW 202 0 min 3,1 C 5,0 C 0,0 km/h (0 Bft)
14.04.2023 05:15 5,2 C 11,4 C 5,0 C 5,1 C 5,0 C 0,0 C 86 % 73 % 1009,8 hPa 0,0 l/m 0,0 km/h (0 Bft) S-SW 202 0 min 3,1 C 5,0 C 0,0 km/h (0 Bft)
14.04.2023 05:20 5,2 C 11,3 C 5,0 C 5,1 C 5,0 C 0,0 C 86 % 72 % 1009,8 hPa 0,0 l/m 0,0 km/h (0 Bft) S-SW 202 0 min 3,1 C 5,0 C 0,0 km/h (0 Bft)
14.04.2023 05:25 5,2 C 11,4 C 5,0 C 5,1 C 5,0 C 0,0 C 86 % 72 % 1009,2 hPa 0,0 l/m 0,0 km/h (0 Bft) S-SW 202 0 min 3,1 C 5,0 C 0,0 km/h (0 Bft)
14.04.2023 05:30 5,2 C 11,4 C 4,9 C 5,1 C 5,0 C 0,0 C 86 % 72 % 1009,2 hPa 0,0 l/m 0,0 km/h (0 Bft) S-SW 202 0 min 3,1 C 5,0 C 0,0 km/h (0 Bft)
14.04.2023 05:35 5,2 C 11,4 C 4,9 C 5,1 C 5,0 C 0,0 C 86 % 72 % 1009,2 hPa 0,0 l/m 0,0 km/h (0 Bft) S-SW 202 0 min 3,1 C 5,0 C 0,0 km/h (0 Bft)
14.04.2023 05:40 5,2 C 11,4 C 4,9 C 5,1 C 5,0 C 0,0 C 86 % 73 % 1009,2 hPa 0,0 l/m 0,0 km/h (0 Bft) S 180 0 min 3,1 C 5,0 C 0,0 km/h (0 Bft)
14.04.2023 05:45 5,2 C 11,3 C 4,9 C 5,1 C 5,0 C 0,0 C 86 % 73 % 1009,2 hPa 0,0 l/m 0,0 km/h (0 Bft) S 180 0 min 3,1 C 5,0 C 0,0 km/h (0 Bft)
14.04.2023 05:50 5,2 C 11,3 C 4,9 C 5,1 C 5,0 C 0,0 C 86 % 73 % 1009,2 hPa 0,0 l/m 0,0 km/h (0 Bft) S 180 0 min 3,1 C 5,0 C 0,0 km/h (0 Bft)
14.04.2023 05:55 5,3 C 11,3 C 4,9 C 5,2 C 5,1 C 0,0 C 86 % 73 % 1009,2 hPa 0,0 l/m 0,0 km/h (0 Bft) S-SO 157 0 min 3,2 C 5,1 C 0,0 km/h (0 Bft)
14.04.2023 06:00 5,3 C 11,3 C 4,9 C 5,2 C 5,1 C 0,0 C 86 % 73 % 1009,2 hPa 0,0 l/m 0,0 km/h (0 Bft) S 180 0 min 3,2 C 5,1 C 0,0 km/h (0 Bft)
14.04.2023 06:05 5,2 C 11,3 C 5,0 C 5,2 C 5,1 C 0,0 C 86 % 74 % 1009,4 hPa 0,0 l/m 0,0 km/h (0 Bft) S 180 0 min 3,1 C 5,1 C 0,0 km/h (0 Bft)
14.04.2023 06:11 5,3 C 11,3 C 4,9 C 5,2 C 5,1 C 0,0 C 86 % 74 % 1009,4 hPa 0,0 l/m 0,0 km/h (0 Bft) N 0 0 min 3,2 C 5,1 C 0,0 km/h (0 Bft)
14.04.2023 06:34 5,3 C 11,3 C 5,0 C 5,2 C 5,1 C 0,0 C 87 % 73 % 1009,9 hPa 0,0 l/m 0,0 km/h (0 Bft) S 180 0 min 3,3 C 5,1 C 0,0 km/h (0 Bft)
14.04.2023 06:40 5,3 C 11,3 C 5,1 C 5,2 C 5,1 C 0,0 C 87 % 73 % 1009,9 hPa 0,0 l/m 0,0 km/h (0 Bft) S-SO 157 0 min 3,3 C 5,1 C 0,0 km/h (0 Bft)
14.04.2023 06:45 5,3 C 11,3 C 5,1 C 5,3 C 5,2 C 0,0 C 87 % 73 % 1009,3 hPa 0,0 l/m 0,0 km/h (0 Bft) O-SO 112 0 min 3,3 C 5,2 C 0,0 km/h (0 Bft)
14.04.2023 06:50 5,3 C 11,3 C 5,1 C 5,3 C 5,2 C 0,0 C 87 % 73 % 1009,3 hPa 0,0 l/m 0,0 km/h (0 Bft) SO 135 0 min 3,3 C 5,2 C 0,0 km/h (0 Bft)
14.04.2023 06:55 5,3 C 11,3 C 5,1 C 5,3 C 5,2 C 0,0 C 87 % 73 % 1009,3 hPa 0,0 l/m 0,0 km/h (0 Bft) SW 225 0 min 3,3 C 5,2 C 0,0 km/h (0 Bft)
14.04.2023 07:00 5,3 C 11,3 C 5,1 C 5,3 C 5,3 C 0,0 C 87 % 73 % 1009,3 hPa 0,0 l/m 0,0 km/h (0 Bft) SW 225 0 min 3,3 C 5,3 C 0,0 km/h (0 Bft)
14.04.2023 07:05 5,4 C 11,3 C 5,2 C 5,4 C 5,3 C 0,0 C 87 % 73 % 1009,3 hPa 0,0 l/m 0,0 km/h (0 Bft) W-SW 247 0 min 3,4 C 5,3 C 0,0 km/h (0 Bft)
14.04.2023 07:10 5,5 C 11,3 C 5,3 C 5,5 C 5,4 C 0,0 C 87 % 73 % 1009,3 hPa 0,0 l/m 0,0 km/h (0 Bft) S-SW 202 0 min 3,5 C 5,4 C 0,0 km/h (0 Bft)
14.04.2023 07:16 5,5 C 11,3 C 5,4 C 5,5 C 5,5 C 0,0 C 87 % 72 % 1009,3 hPa 0,0 l/m 0,0 km/h (0 Bft) S-SO 157 0 min 3,5 C 5,5 C 0,0 km/h (0 Bft)
14.04.2023 07:20 5,5 C 11,3 C 5,4 C 5,5 C 5,5 C 0,0 C 87 % 72 % 1009,3 hPa 0,0 l/m 0,0 km/h (0 Bft) S-SO 157 0 min 3,5 C 5,5 C 0,0 km/h (0 Bft)
14.04.2023 07:27 5,5 C 11,2 C 5,5 C 5,5 C 5,5 C 0,0 C 87 % 73 % 1009,6 hPa 0,0 l/m 0,0 km/h (0 Bft) S-SO 157 0 min 3,5 C 5,5 C 0,0 km/h (0 Bft)
14.04.2023 07:28 5,5 C 11,2 C 5,5 C 5,5 C 5,5 C 0,0 C 87 % 73 % 1009,6 hPa 0,0 l/m 0,0 km/h (0 Bft) S-SO 157 0 min 3,5 C 5,5 C 0,0 km/h (0 Bft)
14.04.2023 07:29 5,5 C 11,2 C 5,5 C 5,5 C 5,5 C 0,0 C 87 % 73 % 1009,6 hPa 0,0 l/m 0,0 km/h (0 Bft) S-SO 157 0 min 3,5 C 5,5 C 0,0 km/h (0 Bft)
14.04.2023 07:30 5,5 C 11,2 C 5,5 C 5,5 C 5,5 C 0,0 C 87 % 73 % 1009,6 hPa 0,0 l/m 0,0 km/h (0 Bft) S-SO 157 0 min 3,5 C 5,5 C 0,0 km/h (0 Bft)
14.04.2023 07:31 5,6 C 11,3 C 5,5 C 5,6 C 5,5 C 0,0 C 87 % 73 % 1009,6 hPa 0,0 l/m 0,0 km/h (0 Bft) O-NO 67 0 min 3,6 C 5,5 C 0,0 km/h (0 Bft)
14.04.2023 07:33 5,6 C 11,3 C 5,5 C 5,6 C 5,5 C 0,0 C 87 % 73 % 1009,6 hPa 0,0 l/m 0,0 km/h (0 Bft) O-NO 67 0 min 3,6 C 5,5 C 0,0 km/h (0 Bft)
14.04.2023 07:35 5,6 C 11,3 C 5,5 C 5,6 C 5,5 C 0,0 C 87 % 73 % 1009,6 hPa 0,0 l/m 0,0 km/h (0 Bft) O-NO 67 0 min 3,6 C 5,5 C 0,0 km/h (0 Bft)
14.04.2023 07:40 5,6 C 11,2 C 5,5 C 5,6 C 5,5 C 0,0 C 87 % 74 % 1009,6 hPa 0,0 l/m 0,0 km/h (0 Bft) S-SO 157 0 min 3,6 C 5,5 C 0,0 km/h (0 Bft)
14.04.2023 07:45 5,6 C 11,2 C 5,5 C 5,6 C 5,6 C 0,0 C 87 % 74 % 1010,2 hPa 0,0 l/m 0,0 km/h (0 Bft) S-SO 157 0 min 3,6 C 5,6 C 0,0 km/h (0 Bft)
14.04.2023 07:50 5,6 C 11,3 C 5,7 C 5,7 C 5,7 C 0,1 C 87 % 74 % 1010,2 hPa 0,0 l/m 0,0 km/h (0 Bft) S 180 0 min 3,6 C 5,7 C 0,0 km/h (0 Bft)
14.04.2023 07:55 5,6 C 11,3 C 5,6 C 5,7 C 5,7 C 0,1 C 87 % 74 % 1010,2 hPa 0,0 l/m 0,0 km/h (0 Bft) O-NO 67 0 min 3,6 C 5,7 C 0,0 km/h (0 Bft)
14.04.2023 08:00 5,7 C 11,3 C 5,7 C 5,7 C 5,7 C 0,0 C 87 % 75 % 1010,2 hPa 0,0 l/m 0,0 km/h (0 Bft) S-SW 202 0 min 3,7 C 5,7 C 0,0 km/h (0 Bft)
14.04.2023 08:05 5,8 C 11,3 C 5,6 C 5,8 C 5,7 C 0,0 C 87 % 74 % 1009,9 hPa 0,0 l/m 0,0 km/h (0 Bft) S 180 0 min 3,8 C 5,7 C 0,0 km/h (0 Bft)
14.04.2023 08:11 5,9 C 11,4 C 5,7 C 5,8 C 5,7 C 0,0 C 87 % 76 % 1009,9 hPa 0,0 l/m 0,0 km/h (0 Bft) N 0 0 min 3,9 C 5,7 C 0,0 km/h (0 Bft)
14.04.2023 08:34 6,0 C 11,3 C 6,0 C 6,1 C 6,1 C 0,1 C 87 % 76 % 1009,6 hPa 0,0 l/m 0,0 km/h (0 Bft) SW 225 0 min 4,0 C 6,1 C 0,0 km/h (0 Bft)
14.04.2023 08:40 6,1 C 11,3 C 6,0 C 6,1 C 6,1 C 0,0 C 87 % 76 % 1009,6 hPa 0,0 l/m 0,0 km/h (0 Bft) SW 225 0 min 4,1 C 6,1 C 0,0 km/h (0 Bft)
14.04.2023 08:45 6,0 C 11,3 C 6,0 C 6,0 C 6,0 C 0,0 C 87 % 76 % 1009,7 hPa 0,0 l/m 0,0 km/h (0 Bft) N-NO 22 0 min 4,0 C 6,0 C 0,0 km/h (0 Bft)
14.04.2023 08:50 6,0 C 11,3 C 6,0 C 6,0 C 5,9 C 0,0 C 87 % 77 % 1009,7 hPa 0,0 l/m 0,0 km/h (0 Bft) SW 225 0 min 4,0 C 5,9 C 0,0 km/h (0 Bft)
14.04.2023 08:55 6,0 C 11,3 C 6,0 C 6,0 C 5,9 C 0,0 C 87 % 77 % 1009,7 hPa 0,0 l/m 0,0 km/h (0 Bft) W-SW 247 0 min 4,0 C 5,9 C 0,0 km/h (0 Bft)
14.04.2023 09:00 6,0 C 11,3 C 6,1 C 6,0 C 5,9 C 0,0 C 87 % 77 % 1009,7 hPa 0,0 l/m 0,0 km/h (0 Bft) W-SW 247 0 min 4,0 C 5,9 C 0,0 km/h (0 Bft)
14.04.2023 09:05 6,1 C 11,3 C 6,1 C 6,1 C 6,0 C 0,0 C 87 % 76 % 1009,8 hPa 0,0 l/m 0,0 km/h (0 Bft) S-SW 202 0 min 4,1 C 6,0 C 0,0 km/h (0 Bft)
14.04.2023 09:10 6,0 C 11,3 C 6,3 C 6,2 C 6,2 C 0,2 C 87 % 77 % 1009,8 hPa 0,0 l/m 0,0 km/h (0 Bft) W 270 0 min 4,0 C 6,2 C 0,0 km/h (0 Bft)
14.04.2023 09:15 6,1 C 11,3 C 6,2 C 6,3 C 6,3 C 0,2 C 88 % 77 % 1009,8 hPa 0,0 l/m 0,0 km/h (0 Bft) NW 315 0 min 4,3 C 6,3 C 0,0 km/h (0 Bft)
14.04.2023 09:20 6,3 C 11,3 C 6,3 C 6,5 C 6,5 C 0,2 C 88 % 77 % 1009,8 hPa 0,0 l/m 0,0 km/h (0 Bft) W 270 0 min 4,5 C 6,5 C 0,0 km/h (0 Bft)
14.04.2023 09:25 6,3 C 11,3 C 6,5 C 6,6 C 6,6 C 0,3 C 88 % 77 % 1009,6 hPa 0,0 l/m 0,0 km/h (0 Bft) N-NO 22 0 min 4,5 C 6,6 C 0,0 km/h (0 Bft)
14.04.2023 09:30 6,3 C 11,3 C 6,5 C 6,6 C 6,6 C 0,3 C 88 % 78 % 1009,6 hPa 0,0 l/m 0,0 km/h (0 Bft) SW 225 0 min 4,5 C 6,6 C 0,0 km/h (0 Bft)
14.04.2023 09:35 6,4 C 11,3 C 6,6 C 6,6 C 6,6 C 0,2 C 88 % 77 % 1009,6 hPa 0,0 l/m 0,0 km/h (0 Bft) S-SW 202 0 min 4,6 C 6,6 C 0,0 km/h (0 Bft)
14.04.2023 09:40 6,4 C 11,3 C 6,8 C 6,6 C 6,6 C 0,2 C 88 % 78 % 1009,6 hPa 0,0 l/m 0,0 km/h (0 Bft) SW 225 0 min 4,6 C 6,6 C 0,0 km/h (0 Bft)
14.04.2023 09:45 6,4 C 11,3 C 6,7 C 6,8 C 6,8 C 0,4 C 88 % 77 % 1009,6 hPa 0,0 l/m 0,0 km/h (0 Bft) S 180 0 min 4,6 C 6,8 C 0,0 km/h (0 Bft)
14.04.2023 09:50 6,5 C 11,3 C 6,7 C 6,8 C 6,8 C 0,3 C 88 % 78 % 1009,6 hPa 0,0 l/m 0,0 km/h (0 Bft) NO 45 0 min 4,7 C 6,8 C 0,0 km/h (0 Bft)
14.04.2023 09:55 6,5 C 11,3 C 6,7 C 6,8 C 6,8 C 0,3 C 88 % 78 % 1009,6 hPa 0,0 l/m 0,0 km/h (0 Bft) SW 225 0 min 4,7 C 6,8 C 0,0 km/h (0 Bft)
14.04.2023 10:00 6,5 C 11,3 C 7,0 C 6,8 C 6,8 C 0,3 C 88 % 78 % 1009,6 hPa 0,0 l/m 0,0 km/h (0 Bft) SW 225 0 min 4,7 C 6,8 C 0,0 km/h (0 Bft)
14.04.2023 10:05 6,5 C 11,3 C 7,0 C 6,8 C 6,8 C 0,3 C 88 % 78 % 1009,8 hPa 0,0 l/m 0,2 km/h (0 Bft) SW 225 0 min 4,7 C 6,8 C 2,4 km/h (1 Bft)
14.04.2023 10:11 6,5 C 11,3 C 7,0 C 6,8 C 6,8 C 0,3 C 88 % 78 % 1009,8 hPa 0,0 l/m 0,0 km/h (0 Bft) N 0 0 min 4,7 C 6,8 C 0,0 km/h (0 Bft)
14.04.2023 10:34 6,9 C 11,3 C 7,4 C 7,3 C 7,3 C 0,4 C 88 % 78 % 1009,6 hPa 0,0 l/m 0,2 km/h (0 Bft) W-SW 247 0 min 5,1 C 7,3 C 0,0 km/h (0 Bft)
14.04.2023 10:40 6,8 C 11,3 C 7,7 C 7,6 C 7,6 C 0,8 C 88 % 79 % 1009,6 hPa 0,0 l/m 0,2 km/h (0 Bft) SW 225 0 min 5,0 C 7,6 C 0,0 km/h (0 Bft)
14.04.2023 10:45 6,9 C 11,3 C 7,6 C 7,7 C 7,7 C 0,8 C 88 % 78 % 1009,6 hPa 0,0 l/m 0,0 km/h (0 Bft) N-NW 337 0 min 5,1 C 7,7 C 0,0 km/h (0 Bft)
14.04.2023 10:50 7,1 C 11,4 C 7,6 C 7,8 C 7,8 C 0,7 C 88 % 79 % 1009,6 hPa 0,0 l/m 0,0 km/h (0 Bft) S 180 0 min 5,2 C 7,8 C 0,0 km/h (0 Bft)
14.04.2023 10:55 7,2 C 11,3 C 7,7 C 7,9 C 7,9 C 0,7 C 88 % 79 % 1009,6 hPa 0,0 l/m 0,0 km/h (0 Bft) SO 135 0 min 5,3 C 7,9 C 0,0 km/h (0 Bft)
14.04.2023 11:00 7,2 C 11,4 C 7,6 C 7,9 C 7,9 C 0,7 C 88 % 78 % 1009,6 hPa 0,0 l/m 0,0 km/h (0 Bft) S-SW 202 0 min 5,3 C 7,9 C 0,0 km/h (0 Bft)
14.04.2023 11:05 7,2 C 11,4 C 7,5 C 7,9 C 7,9 C 0,7 C 88 % 78 % 1009,8 hPa 0,0 l/m 0,0 km/h (0 Bft) N-NW 337 0 min 5,3 C 7,9 C 0,0 km/h (0 Bft)
14.04.2023 11:10 7,3 C 11,4 C 7,4 C 7,6 C 7,6 C 0,3 C 88 % 79 % 1009,8 hPa 0,0 l/m 0,0 km/h (0 Bft) W 270 0 min 5,4 C 7,6 C 0,0 km/h (0 Bft)
14.04.2023 11:15 7,3 C 11,4 C 7,7 C 7,7 C 7,7 C 0,4 C 88 % 79 % 1009,8 hPa 0,0 l/m 0,0 km/h (0 Bft) W-SW 247 0 min 5,4 C 7,7 C 0,0 km/h (0 Bft)
14.04.2023 11:20 7,5 C 11,4 C 7,9 C 8,0 C 8,0 C 0,5 C 88 % 80 % 1009,8 hPa 0,0 l/m 0,0 km/h (0 Bft) W 270 0 min 5,6 C 8,0 C 0,0 km/h (0 Bft)
14.04.2023 11:25 7,4 C 11,4 C 7,9 C 8,2 C 8,2 C 0,8 C 88 % 80 % 1009,7 hPa 0,0 l/m 0,0 km/h (0 Bft) N-NW 337 0 min 5,5 C 8,2 C 0,0 km/h (0 Bft)
14.04.2023 11:30 7,6 C 11,4 C 8,2 C 8,6 C 8,6 C 1,0 C 88 % 80 % 1009,7 hPa 0,0 l/m 0,0 km/h (0 Bft) W-SW 247 0 min 5,7 C 8,6 C 0,0 km/h (0 Bft)
14.04.2023 11:35 7,6 C 11,4 C 8,4 C 9,0 C 9,0 C 1,4 C 88 % 81 % 1009,7 hPa 0,7 l/m 0,0 km/h (0 Bft) O-SO 112 0 min 5,7 C 9,0 C 0,0 km/h (0 Bft)
14.04.2023 11:40 7,8 C 11,4 C 8,6 C 9,2 C 9,2 C 1,4 C 88 % 81 % 1009,7 hPa 0,0 l/m 0,0 km/h (0 Bft) S-SO 157 0 min 5,9 C 9,2 C 0,0 km/h (0 Bft)
14.04.2023 11:45 7,9 C 11,4 C 8,8 C 9,4 C 9,4 C 1,5 C 88 % 81 % 1009,8 hPa 0,0 l/m 0,0 km/h (0 Bft) SW 225 0 min 6,0 C 9,4 C 0,0 km/h (0 Bft)
14.04.2023 11:50 8,1 C 11,4 C 9,3 C 9,9 C 9,9 C 1,8 C 88 % 89 % 1009,8 hPa 0,0 l/m 0,0 km/h (0 Bft) N-NW 337 0 min 6,2 C 9,9 C 0,0 km/h (0 Bft)
14.04.2023 11:55 8,3 C 11,2 C 9,0 C 9,8 C 9,8 C 1,5 C 88 % 82 % 1009,8 hPa 0,0 l/m 0,3 km/h (0 Bft) SW 225 0 min 6,4 C 9,8 C 0,0 km/h (0 Bft)
14.04.2023 12:00 8,3 C 11,2 C 8,9 C 9,5 C 9,5 C 1,2 C 88 % 81 % 1009,8 hPa 0,0 l/m 0,5 km/h (0 Bft) W-SW 247 0 min 6,4 C 9,5 C 6,0 km/h (2 Bft)
14.04.2023 12:05 8,3 C 11,2 C 8,7 C 9,3 C 9,3 C 1,0 C 88 % 80 % 1009,9 hPa 0,0 l/m 0,3 km/h (0 Bft) O-NO 67 0 min 6,4 C 9,3 C 0,0 km/h (0 Bft)
14.04.2023 12:11 8,3 C 11,2 C 8,4 C 8,7 C 8,7 C 0,4 C 87 % 78 % 1009,9 hPa 0,0 l/m 0,2 km/h (0 Bft) N 0 0 min 6,3 C 8,7 C 0,0 km/h (0 Bft)
14.04.2023 12:27 8,4 C 11,2 C 8,6 C 8,8 C 8,8 C 0,4 C 87 % 78 % 1009,8 hPa 0,0 l/m 0,5 km/h (0 Bft) SW 225 0 min 6,4 C 8,8 C 6,1 km/h (2 Bft)
14.04.2023 12:30 8,4 C 11,2 C 8,6 C 8,8 C 8,8 C 0,4 C 87 % 78 % 1009,8 hPa 0,0 l/m 0,5 km/h (0 Bft) SW 225 0 min 6,4 C 8,8 C 0,0 km/h (0 Bft)
14.04.2023 12:35 8,4 C 11,2 C 8,5 C 8,8 C 8,8 C 0,4 C 87 % 78 % 1009,8 hPa 0,0 l/m 0,0 km/h (0 Bft) N-NW 337 0 min 6,4 C 8,8 C 0,0 km/h (0 Bft)
14.04.2023 12:40 8,2 C 11,3 C 8,0 C 8,3 C 8,3 C 0,1 C 86 % 77 % 1009,8 hPa 0,0 l/m 0,2 km/h (0 Bft) NO 45 0 min 6,0 C 8,3 C 0,0 km/h (0 Bft)
14.04.2023 12:45 8,3 C 11,3 C 8,2 C 8,2 C 8,1 C 0,0 C 86 % 77 % 1009,8 hPa 0,0 l/m 0,3 km/h (0 Bft) W-SW 247 0 min 6,1 C 8,1 C 2,9 km/h (1 Bft)
14.04.2023 12:50 8,3 C 11,1 C 8,6 C 8,3 C 8,3 C 0,0 C 86 % 78 % 1009,8 hPa 0,0 l/m 0,2 km/h (0 Bft) N-NW 337 0 min 6,1 C 8,3 C 0,0 km/h (0 Bft)
14.04.2023 12:55 8,3 C 11,1 C 8,7 C 8,6 C 8,6 C 0,3 C 86 % 78 % 1009,8 hPa 0,0 l/m 0,2 km/h (0 Bft) NO 45 0 min 6,1 C 8,6 C 0,0 km/h (0 Bft)
14.04.2023 13:00 8,2 C 11,1 C 8,2 C 8,5 C 8,5 C 0,3 C 85 % 76 % 1009,8 hPa 0,0 l/m 0,6 km/h (0 Bft) N 360 0 min 5,8 C 8,5 C 1,8 km/h (1 Bft)
14.04.2023 13:05 8,1 C 11,1 C 8,1 C 8,2 C 8,2 C 0,1 C 85 % 76 % 1009,5 hPa 0,0 l/m 1,4 km/h (1 Bft) NW 315 0 min 5,7 C 8,2 C 0,0 km/h (0 Bft)
14.04.2023 13:10 8,1 C 11,1 C 8,2 C 8,1 C 8,1 C 0,0 C 85 % 76 % 1009,5 hPa 0,0 l/m 1,1 km/h (1 Bft) SW 225 0 min 5,7 C 8,1 C 7,1 km/h (2 Bft)
14.04.2023 13:15 8,1 C 11,1 C 8,2 C 8,1 C 8,1 C 0,0 C 85 % 76 % 1009,5 hPa 0,0 l/m 0,3 km/h (0 Bft) S-SW 202 0 min 5,7 C 8,1 C 0,0 km/h (0 Bft)
14.04.2023 13:20 8,1 C 11,1 C 8,4 C 8,3 C 8,3 C 0,2 C 85 % 76 % 1009,5 hPa 0,0 l/m 0,5 km/h (0 Bft) N-NO 22 0 min 5,7 C 8,3 C 0,0 km/h (0 Bft)
14.04.2023 13:25 8,3 C 11,1 C 8,5 C 8,6 C 8,6 C 0,3 C 85 % 76 % 1009,2 hPa 0,0 l/m 0,2 km/h (0 Bft) SW 225 0 min 5,9 C 8,6 C 0,0 km/h (0 Bft)
14.04.2023 13:30 8,4 C 11,1 C 9,0 C 9,2 C 9,2 C 0,8 C 85 % 77 % 1009,2 hPa 0,0 l/m 0,2 km/h (0 Bft) W-SW 247 0 min 6,0 C 9,2 C 1,8 km/h (1 Bft)
14.04.2023 13:36 8,4 C 11,1 C 8,8 C 9,4 C 9,4 C 1,0 C 84 % 75 % 1009,2 hPa 0,0 l/m 0,6 km/h (0 Bft) N 360 0 min 5,9 C 9,4 C 3,9 km/h (1 Bft)
14.04.2023 13:40 8,4 C 11,1 C 8,8 C 9,4 C 9,4 C 1,0 C 84 % 75 % 1009,2 hPa 0,0 l/m 0,6 km/h (0 Bft) N 360 0 min 5,9 C 9,4 C 3,9 km/h (1 Bft)
14.04.2023 13:47 8,7 C 11,1 C 8,9 C 9,5 C 9,5 C 0,8 C 84 % 75 % 1009,0 hPa 0,0 l/m 0,3 km/h (0 Bft) N-NW 337 0 min 6,2 C 9,5 C 0,0 km/h (0 Bft)
14.04.2023 13:48 8,7 C 11,1 C 8,9 C 9,5 C 9,5 C 0,8 C 84 % 75 % 1009,0 hPa 0,0 l/m 0,3 km/h (0 Bft) N-NW 337 0 min 6,2 C 9,5 C 0,0 km/h (0 Bft)
14.04.2023 13:49 8,7 C 11,1 C 8,9 C 9,5 C 9,5 C 0,8 C 84 % 75 % 1009,0 hPa 0,0 l/m 0,3 km/h (0 Bft) N-NW 337 0 min 6,2 C 9,5 C 0,0 km/h (0 Bft)
14.04.2023 13:50 8,7 C 11,1 C 8,9 C 9,5 C 9,5 C 0,8 C 84 % 75 % 1009,0 hPa 0,0 l/m 0,3 km/h (0 Bft) N-NW 337 0 min 6,2 C 9,5 C 0,0 km/h (0 Bft)
14.04.2023 13:51 8,7 C 11,1 C 9,0 C 9,5 C 9,5 C 0,8 C 84 % 75 % 1009,0 hPa 0,0 l/m 0,8 km/h (0 Bft) NW 315 0 min 6,2 C 9,5 C 2,7 km/h (1 Bft)
14.04.2023 13:53 8,7 C 11,1 C 9,0 C 9,5 C 9,5 C 0,8 C 84 % 75 % 1009,0 hPa 0,0 l/m 0,8 km/h (0 Bft) NW 315 0 min 6,2 C 9,5 C 2,7 km/h (1 Bft)
14.04.2023 13:55 8,7 C 11,1 C 9,0 C 9,5 C 9,5 C 0,8 C 84 % 75 % 1009,0 hPa 0,0 l/m 0,8 km/h (0 Bft) NW 315 0 min 6,2 C 9,5 C 2,7 km/h (1 Bft)
14.04.2023 14:00 8,7 C 11,2 C 8,9 C 9,7 C 9,7 C 1,0 C 84 % 75 % 1009,0 hPa 0,0 l/m 0,5 km/h (0 Bft) SW 225 0 min 6,2 C 9,7 C 7,7 km/h (2 Bft)
14.04.2023 14:05 8,7 C 11,2 C 8,7 C 9,5 C 9,5 C 0,8 C 84 % 76 % 1008,9 hPa 0,0 l/m 0,3 km/h (0 Bft) W-NW 292 0 min 6,2 C 9,5 C 4,3 km/h (1 Bft)
14.04.2023 14:11 8,5 C 11,1 C 8,6 C 8,9 C 8,9 C 0,4 C 84 % 75 % 1008,9 hPa 0,0 l/m 0,6 km/h (0 Bft) NO 45 0 min 6,0 C 8,9 C 0,0 km/h (0 Bft)
14.04.2023 14:12 8,5 C 11,1 C 8,6 C 8,9 C 8,9 C 0,4 C 84 % 75 % 1008,9 hPa 0,0 l/m 0,6 km/h (0 Bft) N 0 0 min 6,0 C 8,9 C 0,0 km/h (0 Bft)
14.04.2023 14:26 8,3 C 11,1 C 8,0 C 8,3 C 8,2 C 0,0 C 84 % 75 % 1009,1 hPa 0,0 l/m 0,6 km/h (0 Bft) W 270 0 min 5,8 C 8,2 C 2,6 km/h (1 Bft)
14.04.2023 14:31 8,1 C 11,1 C 7,8 C 8,1 C 8,1 C 0,0 C 83 % 75 % 1009,1 hPa 0,0 l/m 1,8 km/h (1 Bft) W 270 0 min 5,4 C 8,1 C 5,6 km/h (1 Bft)
14.04.2023 14:34 8,1 C 11,1 C 7,8 C 8,1 C 8,1 C 0,0 C 83 % 75 % 1009,1 hPa 0,0 l/m 1,8 km/h (1 Bft) W 270 0 min 5,4 C 8,1 C 5,6 km/h (1 Bft)
14.04.2023 14:35 8,1 C 11,1 C 7,8 C 8,1 C 8,1 C 0,0 C 83 % 75 % 1009,1 hPa 0,0 l/m 1,8 km/h (1 Bft) W 270 0 min 5,4 C 8,1 C 5,6 km/h (1 Bft)
14.04.2023 14:40 8,0 C 11,3 C 7,8 C 8,0 C 8,0 C 0,0 C 83 % 75 % 1009,1 hPa 0,0 l/m 1,4 km/h (1 Bft) NW 315 0 min 5,3 C 8,0 C 8,7 km/h (2 Bft)
14.04.2023 14:45 8,1 C 11,3 C 7,9 C 8,1 C 8,0 C 0,0 C 84 % 76 % 1008,8 hPa 0,0 l/m 0,5 km/h (0 Bft) N-NW 337 0 min 5,6 C 8,0 C 0,0 km/h (0 Bft)
14.04.2023 14:50 8,1 C 11,3 C 7,9 C 8,2 C 8,2 C 0,1 C 84 % 75 % 1008,8 hPa 0,0 l/m 0,2 km/h (0 Bft) NW 315 0 min 5,6 C 8,2 C 2,3 km/h (1 Bft)
14.04.2023 14:55 8,0 C 11,3 C 7,9 C 8,3 C 8,3 C 0,3 C 84 % 75 % 1008,8 hPa 0,0 l/m 0,3 km/h (0 Bft) W-SW 247 0 min 5,5 C 8,3 C 4,8 km/h (1 Bft)
14.04.2023 15:00 8,0 C 11,3 C 8,1 C 8,2 C 8,2 C 0,2 C 84 % 75 % 1008,8 hPa 0,0 l/m 0,3 km/h (0 Bft) W-NW 292 0 min 5,5 C 8,2 C 4,2 km/h (1 Bft)
14.04.2023 15:05 8,0 C 11,3 C 8,4 C 8,5 C 8,5 C 0,5 C 84 % 76 % 1008,6 hPa 0,0 l/m 0,3 km/h (0 Bft) O-SO 112 0 min 5,5 C 8,5 C 0,0 km/h (0 Bft)
14.04.2023 15:10 8,3 C 11,2 C 8,6 C 9,7 C 9,7 C 1,4 C 85 % 76 % 1008,6 hPa 0,0 l/m 0,2 km/h (0 Bft) N-NW 337 0 min 5,9 C 9,7 C 0,0 km/h (0 Bft)
14.04.2023 15:15 8,3 C 11,2 C 8,3 C 9,8 C 9,8 C 1,5 C 85 % 74 % 1008,6 hPa 0,0 l/m 0,2 km/h (0 Bft) W-SW 247 0 min 5,9 C 9,8 C 0,0 km/h (0 Bft)
14.04.2023 15:20 8,1 C 11,3 C 7,9 C 9,1 C 9,1 C 1,0 C 84 % 73 % 1008,6 hPa 0,0 l/m 0,5 km/h (0 Bft) NW 315 0 min 5,6 C 9,1 C 2,3 km/h (1 Bft)
14.04.2023 15:25 8,0 C 11,1 C 7,8 C 8,9 C 8,9 C 0,9 C 84 % 73 % 1008,6 hPa 0,0 l/m 0,6 km/h (0 Bft) NW 315 0 min 5,5 C 8,9 C 6,0 km/h (2 Bft)
14.04.2023 15:30 8,0 C 11,1 C 8,0 C 8,9 C 8,9 C 0,9 C 83 % 72 % 1008,6 hPa 0,0 l/m 1,1 km/h (1 Bft) W 270 0 min 5,3 C 8,9 C 9,5 km/h (2 Bft)
14.04.2023 15:35 7,9 C 11,1 C 8,2 C 9,0 C 9,0 C 1,1 C 83 % 71 % 1008,6 hPa 0,0 l/m 1,1 km/h (1 Bft) W-SW 247 0 min 5,2 C 9,0 C 0,0 km/h (0 Bft)
14.04.2023 15:40 8,1 C 11,1 C 8,6 C 9,8 C 9,8 C 1,7 C 84 % 70 % 1008,6 hPa 0,0 l/m 0,5 km/h (0 Bft) NW 315 0 min 5,6 C 9,8 C 0,0 km/h (0 Bft)
14.04.2023 15:45 8,3 C 11,1 C 8,8 C 10,2 C 10,2 C 1,9 C 84 % 71 % 1008,4 hPa 0,0 l/m 0,0 km/h (0 Bft) W-SW 247 0 min 5,8 C 10,2 C 0,0 km/h (0 Bft)
14.04.2023 15:50 8,3 C 11,1 C 8,4 C 10,3 C 10,3 C 2,0 C 84 % 69 % 1008,4 hPa 0,0 l/m 0,3 km/h (0 Bft) NW 315 0 min 5,8 C 10,3 C 8,0 km/h (2 Bft)
14.04.2023 15:55 8,2 C 11,1 C 8,0 C 9,9 C 9,9 C 1,7 C 83 % 68 % 1008,4 hPa 0,0 l/m 0,6 km/h (0 Bft) NW 315 0 min 5,5 C 9,9 C 4,7 km/h (1 Bft)
14.04.2023 16:00 8,1 C 11,1 C 7,8 C 9,1 C 9,1 C 1,0 C 83 % 70 % 1008,4 hPa 0,0 l/m 0,6 km/h (0 Bft) NO 45 0 min 5,4 C 9,1 C 1,8 km/h (1 Bft)
14.04.2023 16:05 8,1 C 11,3 C 7,7 C 8,6 C 8,6 C 0,5 C 83 % 70 % 1008,4 hPa 0,0 l/m 0,6 km/h (0 Bft) S 180 0 min 5,4 C 8,6 C 5,1 km/h (1 Bft)
14.04.2023 16:11 7,9 C 11,1 C 7,6 C 8,3 C 8,3 C 0,4 C 83 % 70 % 1008,4 hPa 0,0 l/m 1,1 km/h (1 Bft) NW 315 0 min 5,2 C 8,3 C 1,9 km/h (1 Bft)
14.04.2023 16:12 7,9 C 11,1 C 7,6 C 8,3 C 8,3 C 0,4 C 83 % 70 % 1008,4 hPa 0,0 l/m 1,1 km/h (1 Bft) N 0 0 min 5,2 C 8,3 C 1,9 km/h (1 Bft)
14.04.2023 16:26 7,8 C 11,1 C 7,9 C 8,9 C 8,9 C 1,1 C 83 % 70 % 1008,4 hPa 0,0 l/m 0,6 km/h (0 Bft) W-NW 292 0 min 5,1 C 8,9 C 0,0 km/h (0 Bft)
14.04.2023 16:31 7,9 C 11,1 C 7,9 C 8,9 C 8,9 C 1,0 C 83 % 70 % 1008,4 hPa 0,0 l/m 0,5 km/h (0 Bft) N-NW 337 0 min 5,2 C 8,9 C 0,0 km/h (0 Bft)
14.04.2023 16:34 7,9 C 11,1 C 7,9 C 8,9 C 8,9 C 1,0 C 83 % 70 % 1008,4 hPa 0,0 l/m 0,5 km/h (0 Bft) N-NW 337 0 min 5,2 C 8,9 C 0,0 km/h (0 Bft)
14.04.2023 16:35 7,9 C 11,1 C 7,9 C 8,9 C 8,9 C 1,0 C 83 % 70 % 1008,4 hPa 0,0 l/m 0,5 km/h (0 Bft) N-NW 337 0 min 5,2 C 8,9 C 0,0 km/h (0 Bft)
14.04.2023 16:40 7,9 C 11,3 C 7,7 C 8,6 C 8,6 C 0,7 C 83 % 70 % 1008,4 hPa 0,0 l/m 0,3 km/h (0 Bft) N 360 0 min 5,2 C 8,6 C 3,4 km/h (1 Bft)
14.04.2023 16:45 7,9 C 11,3 C 7,6 C 8,2 C 8,2 C 0,3 C 83 % 71 % 1008,4 hPa 0,0 l/m 0,3 km/h (0 Bft) SO 135 0 min 5,2 C 8,2 C 0,0 km/h (0 Bft)
14.04.2023 16:50 7,9 C 11,3 C 7,6 C 8,1 C 8,1 C 0,2 C 83 % 72 % 1008,4 hPa 0,0 l/m 0,2 km/h (0 Bft) SO 135 0 min 5,2 C 8,1 C 0,0 km/h (0 Bft)
14.04.2023 16:55 7,8 C 11,3 C 7,5 C 8,0 C 8,0 C 0,2 C 83 % 73 % 1008,4 hPa 0,0 l/m 0,3 km/h (0 Bft) N-NW 337 0 min 5,1 C 8,0 C 0,0 km/h (0 Bft)
14.04.2023 17:00 7,7 C 11,3 C 7,5 C 7,9 C 7,9 C 0,2 C 83 % 73 % 1008,4 hPa 0,0 l/m 0,3 km/h (0 Bft) W-SW 247 0 min 5,0 C 7,9 C 0,0 km/h (0 Bft)
14.04.2023 17:05 7,7 C 11,3 C 7,5 C 7,9 C 7,9 C 0,2 C 83 % 73 % 1008,3 hPa 0,0 l/m 0,2 km/h (0 Bft) W-NW 292 0 min 5,0 C 7,9 C 0,0 km/h (0 Bft)
14.04.2023 17:10 7,6 C 11,3 C 7,4 C 7,9 C 7,9 C 0,3 C 83 % 73 % 1008,3 hPa 0,0 l/m 0,2 km/h (0 Bft) W-SW 247 0 min 4,9 C 7,9 C 0,0 km/h (0 Bft)
14.04.2023 17:15 7,6 C 11,3 C 7,4 C 7,8 C 7,8 C 0,2 C 83 % 74 % 1008,3 hPa 0,0 l/m 0,2 km/h (0 Bft) SW 225 0 min 4,9 C 7,8 C 0,0 km/h (0 Bft)
14.04.2023 17:20 7,6 C 11,4 C 7,4 C 7,9 C 7,9 C 0,3 C 83 % 74 % 1008,3 hPa 0,0 l/m 0,3 km/h (0 Bft) S-SO 157 0 min 4,9 C 7,9 C 0,0 km/h (0 Bft)
14.04.2023 17:25 7,6 C 11,3 C 7,5 C 7,9 C 7,9 C 0,3 C 84 % 74 % 1008,2 hPa 0,0 l/m 0,3 km/h (0 Bft) N-NW 337 0 min 5,1 C 7,9 C 0,0 km/h (0 Bft)
14.04.2023 17:30 7,7 C 11,3 C 7,5 C 7,8 C 7,8 C 0,1 C 84 % 75 % 1008,2 hPa 0,0 l/m 0,2 km/h (0 Bft) S 180 0 min 5,2 C 7,8 C 0,0 km/h (0 Bft)
14.04.2023 17:35 7,6 C 11,3 C 7,4 C 7,6 C 7,6 C 0,0 C 84 % 75 % 1008,2 hPa 0,0 l/m 0,2 km/h (0 Bft) N-NW 337 0 min 5,1 C 7,6 C 5,1 km/h (1 Bft)
14.04.2023 17:40 7,7 C 11,4 C 7,2 C 7,6 C 7,3 C 0,0 C 84 % 76 % 1008,2 hPa 0,0 l/m 0,2 km/h (0 Bft) W-NW 292 0 min 5,2 C 7,3 C 0,0 km/h (0 Bft)
14.04.2023 17:45 7,6 C 11,4 C 7,0 C 7,5 C 7,2 C 0,0 C 84 % 77 % 1008,3 hPa 0,0 l/m 0,2 km/h (0 Bft) O 90 0 min 5,1 C 7,2 C 0,0 km/h (0 Bft)
14.04.2023 17:50 7,5 C 11,5 C 7,0 C 7,3 C 7,0 C 0,0 C 84 % 78 % 1008,3 hPa 0,0 l/m 0,0 km/h (0 Bft) NW 315 0 min 5,0 C 7,0 C 0,0 km/h (0 Bft)
14.04.2023 17:55 7,4 C 11,5 C 6,9 C 7,3 C 7,0 C 0,0 C 84 % 78 % 1008,3 hPa 0,0 l/m 0,0 km/h (0 Bft) S 180 0 min 4,9 C 7,0 C 0,0 km/h (0 Bft)
14.04.2023 18:00 7,5 C 11,5 C 7,0 C 7,3 C 6,9 C 0,0 C 85 % 79 % 1008,3 hPa 0,0 l/m 0,0 km/h (0 Bft) W-NW 292 0 min 5,1 C 6,9 C 0,0 km/h (0 Bft)
14.04.2023 18:05 7,5 C 11,5 C 7,0 C 7,3 C 7,0 C 0,0 C 85 % 79 % 1008,9 hPa 0,0 l/m 0,0 km/h (0 Bft) NW 315 0 min 5,1 C 7,0 C 0,0 km/h (0 Bft)
14.04.2023 18:11 7,5 C 11,5 C 7,0 C 7,4 C 7,1 C 0,0 C 86 % 80 % 1008,9 hPa 0,0 l/m 0,0 km/h (0 Bft) N 0 0 min 5,3 C 7,1 C 0,0 km/h (0 Bft)
14.04.2023 18:26 7,5 C 11,5 C 7,0 C 7,4 C 7,2 C 0,0 C 86 % 88 % 1008,1 hPa 0,7 l/m 0,0 km/h (0 Bft) O-NO 67 0 min 5,3 C 7,2 C 0,0 km/h (0 Bft)
14.04.2023 18:27 7,5 C 11,5 C 7,0 C 7,4 C 7,2 C 0,0 C 86 % 88 % 1008,1 hPa 0,0 l/m 0,0 km/h (0 Bft) O-NO 67 0 min 5,3 C 7,2 C 0,0 km/h (0 Bft)
14.04.2023 18:46 7,3 C 11,5 C 6,7 C 7,2 C 7,0 C 0,0 C 86 % 88 % 1008,5 hPa 0,0 l/m 0,0 km/h (0 Bft) W-NW 292 0 min 5,1 C 7,0 C 0,0 km/h (0 Bft)
14.04.2023 19:00 7,3 C 11,5 C 6,7 C 7,1 C 6,8 C 0,0 C 86 % 88 % 1008,6 hPa 0,7 l/m 0,0 km/h (0 Bft) W 270 0 min 5,1 C 6,8 C 0,0 km/h (0 Bft)
14.04.2023 19:06 7,2 C 11,5 C 6,7 C 7,1 C 6,8 C 0,0 C 87 % 88 % 1008,6 hPa 0,0 l/m 0,0 km/h (0 Bft) N-NW 337 0 min 5,2 C 6,8 C 0,0 km/h (0 Bft)
14.04.2023 19:10 7,2 C 11,5 C 6,7 C 7,1 C 6,8 C 0,0 C 87 % 88 % 1008,6 hPa 0,0 l/m 0,0 km/h (0 Bft) N-NW 337 0 min 5,2 C 6,8 C 0,0 km/h (0 Bft)
14.04.2023 19:15 7,1 C 11,5 C 6,7 C 7,0 C 6,8 C 0,0 C 87 % 88 % 1008,6 hPa 0,0 l/m 0,0 km/h (0 Bft) S 180 0 min 5,1 C 6,8 C 0,0 km/h (0 Bft)
14.04.2023 19:20 7,1 C 11,5 C 6,7 C 7,0 C 6,8 C 0,0 C 87 % 88 % 1008,6 hPa 0,0 l/m 0,0 km/h (0 Bft) N-NO 22 0 min 5,1 C 6,8 C 0,0 km/h (0 Bft)
14.04.2023 19:25 7,1 C 11,4 C 6,7 C 7,0 C 6,8 C 0,0 C 87 % 88 % 1008,4 hPa 0,0 l/m 0,0 km/h (0 Bft) N-NO 22 0 min 5,1 C 6,8 C 0,0 km/h (0 Bft)
14.04.2023 19:30 7,1 C 11,5 C 6,7 C 7,0 C 6,8 C 0,0 C 87 % 88 % 1008,4 hPa 0,0 l/m 0,0 km/h (0 Bft) S 180 0 min 5,1 C 6,8 C 0,0 km/h (0 Bft)
14.04.2023 19:35 7,1 C 11,5 C 6,7 C 7,0 C 6,8 C 0,0 C 87 % 88 % 1008,4 hPa 0,0 l/m 0,0 km/h (0 Bft) W-SW 247 0 min 5,1 C 6,8 C 0,0 km/h (0 Bft)
14.04.2023 19:40 7,1 C 11,5 C 6,7 C 7,0 C 6,7 C 0,0 C 87 % 88 % 1008,4 hPa 0,0 l/m 0,0 km/h (0 Bft) W-SW 247 0 min 5,1 C 6,7 C 0,0 km/h (0 Bft)
14.04.2023 19:45 7,1 C 11,6 C 6,6 C 7,0 C 6,7 C 0,0 C 87 % 88 % 1008,6 hPa 0,0 l/m 0,0 km/h (0 Bft) O-SO 112 0 min 5,1 C 6,7 C 0,0 km/h (0 Bft)
14.04.2023 19:50 7,1 C 11,5 C 6,5 C 6,9 C 6,6 C 0,0 C 87 % 88 % 1008,6 hPa 0,0 l/m 0,0 km/h (0 Bft) SO 135 0 min 5,1 C 6,6 C 0,0 km/h (0 Bft)
14.04.2023 19:55 7,1 C 11,5 C 6,5 C 6,9 C 6,6 C 0,0 C 87 % 88 % 1008,6 hPa 0,0 l/m 0,0 km/h (0 Bft) NW 315 0 min 5,1 C 6,6 C 0,0 km/h (0 Bft)
14.04.2023 20:00 6,9 C 11,6 C 6,5 C 6,8 C 6,5 C 0,0 C 87 % 88 % 1008,6 hPa 0,0 l/m 0,0 km/h (0 Bft) W-SW 247 0 min 4,9 C 6,5 C 0,0 km/h (0 Bft)
14.04.2023 20:05 6,9 C 11,6 C 6,3 C 6,8 C 6,5 C 0,0 C 87 % 88 % 1008,5 hPa 0,0 l/m 0,2 km/h (0 Bft) W-NW 292 0 min 4,9 C 6,5 C 0,0 km/h (0 Bft)
14.04.2023 20:11 6,8 C 11,5 C 6,3 C 6,6 C 6,3 C 0,0 C 88 % 88 % 1008,5 hPa 0,0 l/m 0,3 km/h (0 Bft) N 0 0 min 5,0 C 6,3 C 0,0 km/h (0 Bft)
14.04.2023 20:27 6,7 C 11,5 C 6,3 C 6,6 C 6,3 C 0,0 C 88 % 88 % 1008,6 hPa 0,0 l/m 0,5 km/h (0 Bft) NO 45 0 min 4,9 C 6,3 C 0,0 km/h (0 Bft)
14.04.2023 20:49 6,6 C 11,5 C 6,3 C 6,5 C 6,3 C 0,0 C 88 % 88 % 1008,4 hPa 0,7 l/m 0,3 km/h (0 Bft) O-NO 67 0 min 4,8 C 6,3 C 5,6 km/h (1 Bft)
14.04.2023 20:50 6,6 C 11,5 C 6,3 C 6,5 C 6,3 C 0,0 C 88 % 88 % 1008,4 hPa 0,0 l/m 0,3 km/h (0 Bft) O-NO 67 0 min 4,8 C 6,3 C 5,6 km/h (1 Bft)
14.04.2023 20:55 6,7 C 11,5 C 6,2 C 6,6 C 6,3 C 0,0 C 88 % 88 % 1008,4 hPa 0,0 l/m 0,5 km/h (0 Bft) NW 315 0 min 4,9 C 6,3 C 0,0 km/h (0 Bft)
14.04.2023 21:00 6,7 C 11,5 C 6,3 C 6,6 C 6,3 C 0,0 C 88 % 88 % 1008,4 hPa 0,0 l/m 0,5 km/h (0 Bft) S-SW 202 0 min 4,9 C 6,3 C 0,0 km/h (0 Bft)
14.04.2023 21:05 6,7 C 11,5 C 6,2 C 6,6 C 6,3 C 0,0 C 88 % 88 % 1008,5 hPa 0,0 l/m 0,2 km/h (0 Bft) S 180 0 min 4,9 C 6,3 C 0,0 km/h (0 Bft)
14.04.2023 21:10 6,7 C 11,5 C 6,3 C 6,6 C 6,3 C 0,0 C 88 % 88 % 1008,5 hPa 0,0 l/m 0,2 km/h (0 Bft) W 270 0 min 4,9 C 6,3 C 0,0 km/h (0 Bft)
14.04.2023 21:15 6,6 C 11,5 C 6,2 C 6,5 C 6,3 C 0,0 C 88 % 88 % 1008,5 hPa 0,0 l/m 0,2 km/h (0 Bft) SW 225 0 min 4,8 C 6,3 C 0,0 km/h (0 Bft)
14.04.2023 21:20 6,5 C 11,5 C 6,2 C 6,4 C 6,3 C 0,0 C 88 % 88 % 1008,5 hPa 0,0 l/m 0,0 km/h (0 Bft) SW 225 0 min 4,7 C 6,3 C 0,0 km/h (0 Bft)
14.04.2023 21:25 6,5 C 11,5 C 6,2 C 6,4 C 6,3 C 0,0 C 88 % 88 % 1009,0 hPa 0,0 l/m 0,0 km/h (0 Bft) W-NW 292 0 min 4,7 C 6,3 C 0,0 km/h (0 Bft)
14.04.2023 21:30 6,5 C 11,5 C 6,3 C 6,4 C 6,3 C 0,0 C 88 % 88 % 1009,0 hPa 0,0 l/m 0,0 km/h (0 Bft) O-NO 67 0 min 4,7 C 6,3 C 0,0 km/h (0 Bft)
14.04.2023 21:35 6,5 C 11,5 C 6,2 C 6,4 C 6,3 C 0,0 C 88 % 88 % 1009,0 hPa 0,0 l/m 0,0 km/h (0 Bft) S-SO 157 0 min 4,7 C 6,3 C 0,0 km/h (0 Bft)
14.04.2023 21:40 6,5 C 11,5 C 6,2 C 6,4 C 6,3 C 0,0 C 88 % 88 % 1009,0 hPa 0,0 l/m 0,2 km/h (0 Bft) W-NW 292 0 min 4,7 C 6,3 C 0,0 km/h (0 Bft)
14.04.2023 21:45 6,5 C 11,5 C 6,2 C 6,4 C 6,3 C 0,0 C 88 % 88 % 1008,4 hPa 0,0 l/m 0,2 km/h (0 Bft) W-SW 247 0 min 4,7 C 6,3 C 0,0 km/h (0 Bft)
14.04.2023 21:50 6,4 C 11,5 C 6,2 C 6,4 C 6,3 C 0,0 C 88 % 88 % 1008,4 hPa 0,0 l/m 0,6 km/h (0 Bft) W 270 0 min 4,6 C 6,3 C 0,0 km/h (0 Bft)
14.04.2023 21:55 6,4 C 11,5 C 6,2 C 6,4 C 6,3 C 0,0 C 88 % 88 % 1008,4 hPa 0,0 l/m 0,6 km/h (0 Bft) W-NW 292 0 min 4,6 C 6,3 C 0,0 km/h (0 Bft)
14.04.2023 22:00 6,5 C 11,5 C 6,2 C 6,4 C 6,3 C 0,0 C 88 % 88 % 1008,4 hPa 0,0 l/m 0,8 km/h (0 Bft) NW 315 0 min 4,7 C 6,3 C 6,0 km/h (2 Bft)
14.04.2023 22:05 6,4 C 11,5 C 6,2 C 6,4 C 6,3 C 0,0 C 88 % 88 % 1008,2 hPa 0,0 l/m 0,8 km/h (0 Bft) W-SW 247 0 min 4,6 C 6,3 C 0,0 km/h (0 Bft)
14.04.2023 22:11 6,4 C 11,5 C 6,2 C 6,4 C 6,3 C 0,0 C 88 % 88 % 1008,2 hPa 0,0 l/m 0,0 km/h (0 Bft) N 0 0 min 4,6 C 6,3 C 0,0 km/h (0 Bft)
14.04.2023 22:27 6,3 C 11,5 C 6,1 C 6,3 C 6,2 C 0,0 C 88 % 88 % 1008,1 hPa 0,0 l/m 0,5 km/h (0 Bft) NW 315 0 min 4,5 C 6,2 C 2,1 km/h (1 Bft)
14.04.2023 22:47 6,2 C 11,5 C 6,1 C 6,2 C 6,2 C 0,0 C 88 % 88 % 1008,0 hPa 0,0 l/m 0,5 km/h (0 Bft) W 270 0 min 4,4 C 6,2 C 0,0 km/h (0 Bft)
14.04.2023 23:00 6,3 C 11,5 C 6,1 C 6,3 C 6,2 C 0,0 C 89 % 88 % 1008,0 hPa 0,0 l/m 0,3 km/h (0 Bft) W 270 0 min 4,6 C 6,2 C 0,0 km/h (0 Bft)
14.04.2023 23:05 6,3 C 11,5 C 6,1 C 6,3 C 6,2 C 0,0 C 89 % 88 % 1008,0 hPa 0,0 l/m 0,3 km/h (0 Bft) W 270 0 min 4,6 C 6,2 C 0,0 km/h (0 Bft)
14.04.2023 23:10 6,2 C 11,5 C 6,1 C 6,2 C 6,2 C 0,0 C 88 % 88 % 1008,0 hPa 0,7 l/m 0,2 km/h (0 Bft) SW 225 0 min 4,4 C 6,2 C 0,0 km/h (0 Bft)
14.04.2023 23:15 6,3 C 11,5 C 6,1 C 6,3 C 6,2 C 0,0 C 89 % 88 % 1008,0 hPa 0,0 l/m 0,0 km/h (0 Bft) SW 225 0 min 4,6 C 6,2 C 0,0 km/h (0 Bft)
14.04.2023 23:20 6,2 C 11,5 C 6,0 C 6,2 C 6,2 C 0,0 C 88 % 88 % 1008,0 hPa 0,0 l/m 0,0 km/h (0 Bft) S-SW 202 0 min 4,4 C 6,2 C 0,0 km/h (0 Bft)
14.04.2023 23:25 6,2 C 11,5 C 6,1 C 6,2 C 6,2 C 0,0 C 88 % 88 % 1007,7 hPa 0,0 l/m 0,3 km/h (0 Bft) NW 315 0 min 4,4 C 6,2 C 0,0 km/h (0 Bft)
14.04.2023 23:30 6,1 C 11,4 C 6,0 C 6,2 C 6,2 C 0,1 C 88 % 88 % 1007,7 hPa 0,0 l/m 1,0 km/h (0 Bft) W-NW 292 0 min 4,3 C 6,2 C 6,3 km/h (2 Bft)
14.04.2023 23:35 6,1 C 11,4 C 6,0 C 6,2 C 6,2 C 0,1 C 88 % 88 % 1007,7 hPa 0,0 l/m 1,0 km/h (0 Bft) N-NO 22 0 min 4,3 C 6,2 C 1,6 km/h (1 Bft)
14.04.2023 23:40 6,1 C 11,4 C 6,0 C 6,1 C 6,1 C 0,0 C 88 % 88 % 1007,7 hPa 0,0 l/m 0,6 km/h (0 Bft) S 180 0 min 4,3 C 6,1 C 0,0 km/h (0 Bft)
14.04.2023 23:45 6,1 C 11,4 C 6,0 C 6,1 C 6,1 C 0,0 C 89 % 88 % 1007,6 hPa 0,0 l/m 0,5 km/h (0 Bft) W-SW 247 0 min 4,4 C 6,1 C 0,0 km/h (0 Bft)
14.04.2023 23:50 6,1 C 11,4 C 6,1 C 6,1 C 6,1 C 0,0 C 88 % 88 % 1007,6 hPa 0,0 l/m 0,3 km/h (0 Bft) NW 315 0 min 4,3 C 6,1 C 0,0 km/h (0 Bft)
14.04.2023 23:55 6,1 C 11,4 C 6,1 C 6,1 C 6,1 C 0,0 C 89 % 88 % 1007,6 hPa 0,0 l/m 0,5 km/h (0 Bft) W 270 0 min 4,4 C 6,1 C 0,0 km/h (0 Bft)
_ Min-Zeit 02:45 12:50 02:50 02:40 02:40 00:00 00:00 00:00 23:45 - 00:00 - - - 02:45 02:40 00:00
Minimum _ 4,9 C 11,1 C 4,4 C 4,7 C 4,2 C 0,0 C 81 % 67 % 1007,6 hPa - 0,0 km/h (0 Bft) - - - 2,4 C 4,2 C 0,0 km/h (0 Bft)
_ Max-Zeit 13:47 00:00 11:50 15:50 15:50 15:50 23:00 11:50 07:45 11:35 14:31 - - 00:00 11:55 15:50 15:30
Maximum _ 8,7 C 11,7 C 9,3 C 10,3 C 10,3 C 2,0 C 89 % 89 % 1010,2 hPa 0,7 l/m 1,8 km/h
W (1 Bft)
- - 0 min 6,4 C 10,3 C 9,5 km/h
W (2 Bft)
Durchschnitt _ 6,6 C 11,4 C 6,4 C 6,7 C 6,6 C 0,2 C 86 % 77 % 1009,1 hPa #3,4 l/m 0,2 km/h (0 Bft) W - #0 min. 4,4 C 6,6 C 0,7 km/h (0 Bft)
2023 www.wetterstation-wechselburg.de